owner,sensor,date,latitude,longitude,vertical_datum,wind_speed,wind_to_direction,wind_speed_of_gust,qcFlag 
DISL,ioos:station:DISL:KATA:1,2013-10-01T00:00:00Z,30.2583,-88.2131,0.0,3.79,130.1,-9999.0,'1111122,1111122,1111122' 
DISL,ioos:station:DISL:KATA:1,2013-10-01T00:30:00Z,30.2583,-88.2131,0.0,3.42,133.7,-9999.0,'1111122,1111122,1111122' 
DISL,ioos:station:DISL:KATA:1,2013-10-01T01:00:00Z,30.2583,-88.2131,0.0,3.85,121.4,-9999.0,'1111122,1111122,1111122' 
DISL,ioos:station:DISL:KATA:1,2013-10-01T01:30:00Z,30.2583,-88.2131,0.0,4.1,107.7,-9999.0,'1111122,1111122,1111122' 
DISL,ioos:station:DISL:KATA:1,2013-10-01T02:00:00Z,30.2583,-88.2131,0.0,4.17,88.1,-9999.0,'1111122,1111122,1111122' 
DISL,ioos:station:DISL:KATA:1,2013-10-01T02:30:00Z,30.2583,-88.2131,0.0,4.71,91.0,-9999.0,'1111122,1111122,1111122' 
DISL,ioos:station:DISL:KATA:1,2013-10-01T03:00:00Z,30.2583,-88.2131,0.0,4.68,94.2,-9999.0,'1111122,1111122,1111122' 
DISL,ioos:station:DISL:KATA:1,2013-10-01T03:30:00Z,30.2583,-88.2131,0.0,4.85,99.5,-9999.0,'1111122,1111122,1111122' 
DISL,ioos:station:DISL:KATA:1,2013-10-01T04:00:00Z,30.2583,-88.2131,0.0,5.21,97.4,-9999.0,'1111122,1111122,1111122' 
DISL,ioos:station:DISL:KATA:1,2013-10-01T04:30:00Z,30.2583,-88.2131,0.0,5.01,99.5,-9999.0,'1111122,1111122,1111122' 
DISL,ioos:station:DISL:KATA:1,2013-10-01T05:00:00Z,30.2583,-88.2131,0.0,5.14,94.0,-9999.0,'1111122,1111122,1111122' 
DISL,ioos:station:DISL:KATA:1,2013-10-01T05:30:00Z,30.2583,-88.2131,0.0,4.26,93.1,-9999.0,'1111122,1111122,1111122' 
DISL,ioos:station:DISL:KATA:1,2013-10-01T06:00:00Z,30.2583,-88.2131,0.0,4.61,117.1,-9999.0,'1111122,1111122,1111122' 
DISL,ioos:station:DISL:KATA:1,2013-10-01T06:30:00Z,30.2583,-88.2131,0.0,5.09,128.9,-9999.0,'1111122,1111122,1111122' 
DISL,ioos:station:DISL:KATA:1,2013-10-01T07:00:00Z,30.2583,-88.2131,0.0,4.84,125.2,-9999.0,'1111122,1111122,1111122' 
DISL,ioos:station:DISL:KATA:1,2013-10-01T07:30:00Z,30.2583,-88.2131,0.0,5.6,74.65,-9999.0,'1111122,1111122,1111122' 
DISL,ioos:station:DISL:KATA:1,2013-10-01T08:00:00Z,30.2583,-88.2131,0.0,4.92,82.9,-9999.0,'1111122,1111122,1111122' 
DISL,ioos:station:DISL:KATA:1,2013-10-01T08:30:00Z,30.2583,-88.2131,0.0,4.59,72.55,-9999.0,'1111122,1111122,1111122' 
DISL,ioos:station:DISL:KATA:1,2013-10-01T09:00:00Z,30.2583,-88.2131,0.0,4.98,75.65,-9999.0,'1111122,1111122,1111122' 
DISL,ioos:station:DISL:KATA:1,2013-10-01T09:30:00Z,30.2583,-88.2131,0.0,4.49,78.92,-9999.0,'1111122,1111122,1111122' 
DISL,ioos:station:DISL:KATA:1,2013-10-01T10:00:00Z,30.2583,-88.2131,0.0,5.53,87.7,-9999.0,'1111122,1111122,1111122' 
DISL,ioos:station:DISL:KATA:1,2013-10-01T10:30:00Z,30.2583,-88.2131,0.0,5.88,78.43,-9999.0,'1111122,1111122,1111122' 
DISL,ioos:station:DISL:KATA:1,2013-10-01T11:00:00Z,30.2583,-88.2131,0.0,6.02,78.42,-9999.0,'1111122,1111122,1111122' 
DISL,ioos:station:DISL:KATA:1,2013-10-01T11:30:00Z,30.2583,-88.2131,0.0,7.45,78.68,-9999.0,'1111122,1111122,1111122' 
DISL,ioos:station:DISL:KATA:1,2013-10-01T12:00:00Z,30.2583,-88.2131,0.0,7.46,80.7,-9999.0,'1111122,1111122,1111122' 
DISL,ioos:station:DISL:KATA:1,2013-10-01T12:30:00Z,30.2583,-88.2131,0.0,8.04,80.0,-9999.0,'1111122,1111122,1111122' 
DISL,ioos:station:DISL:KATA:1,2013-10-01T13:00:00Z,30.2583,-88.2131,0.0,8.27,81.8,-9999.0,'1111122,1111122,1111122' 
DISL,ioos:station:DISL:KATA:1,2013-10-01T13:30:00Z,30.2583,-88.2131,0.0,8.07,79.17,-9999.0,'1111122,1111122,1111122' 
DISL,ioos:station:DISL:KATA:1,2013-10-01T14:00:00Z,30.2583,-88.2131,0.0,7.67,77.93,-9999.0,'1111122,1111122,1111122' 
DISL,ioos:station:DISL:KATA:1,2013-10-01T14:30:00Z,30.2583,-88.2131,0.0,7.3,81.7,-9999.0,'1111122,1111122,1111122' 
DISL,ioos:station:DISL:KATA:1,2013-10-01T15:00:00Z,30.2583,-88.2131,0.0,8.1,82.1,-9999.0,'1111122,1111122,1111122' 
DISL,ioos:station:DISL:KATA:1,2013-10-01T15:30:00Z,30.2583,-88.2131,0.0,7.59,82.5,-9999.0,'1111122,1111122,1111122' 
DISL,ioos:station:DISL:KATA:1,2013-10-01T16:00:00Z,30.2583,-88.2131,0.0,7.49,88.0,-9999.0,'1111122,1111122,1111122' 
DISL,ioos:station:DISL:KATA:1,2013-10-01T16:30:00Z,30.2583,-88.2131,0.0,6.68,83.2,-9999.0,'1111122,1111122,1111122' 
DISL,ioos:station:DISL:KATA:1,2013-10-01T17:00:00Z,30.2583,-88.2131,0.0,6.02,79.6,-9999.0,'1111122,1111122,1111122' 
DISL,ioos:station:DISL:KATA:1,2013-10-01T17:30:00Z,30.2583,-88.2131,0.0,5.49,84.0,-9999.0,'1111122,1111122,1111122' 
DISL,ioos:station:DISL:KATA:1,2013-10-01T18:00:00Z,30.2583,-88.2131,0.0,7.11,119.5,-9999.0,'1111122,1111122,1111122' 
DISL,ioos:station:DISL:KATA:1,2013-10-01T18:30:00Z,30.2583,-88.2131,0.0,7.7,122.4,-9999.0,'1111122,1111122,1111122' 
DISL,ioos:station:DISL:KATA:1,2013-10-01T19:00:00Z,30.2583,-88.2131,0.0,7.31,116.7,-9999.0,'1111122,1111122,1111122' 
DISL,ioos:station:DISL:KATA:1,2013-10-01T19:30:00Z,30.2583,-88.2131,0.0,7.24,117.9,-9999.0,'1111122,1111122,1111122' 
DISL,ioos:station:DISL:KATA:1,2013-10-01T20:00:00Z,30.2583,-88.2131,0.0,7.01,118.9,-9999.0,'1111122,1111122,1111122' 
DISL,ioos:station:DISL:KATA:1,2013-10-01T20:30:00Z,30.2583,-88.2131,0.0,6.91,118.4,-9999.0,'1111122,1111122,1111122' 
DISL,ioos:station:DISL:KATA:1,2013-10-01T21:00:00Z,30.2583,-88.2131,0.0,6.62,120.2,-9999.0,'1111122,1111122,1111122' 
DISL,ioos:station:DISL:KATA:1,2013-10-01T21:30:00Z,30.2583,-88.2131,0.0,6.8,124.2,-9999.0,'1111122,1111122,1111122' 
DISL,ioos:station:DISL:KATA:1,2013-10-01T22:00:00Z,30.2583,-88.2131,0.0,6.77,129.1,-9999.0,'1111122,1111122,1111122' 
DISL,ioos:station:DISL:KATA:1,2013-10-01T22:30:00Z,30.2583,-88.2131,0.0,6.4,125.9,-9999.0,'1111122,1111122,1111122' 
DISL,ioos:station:DISL:KATA:1,2013-10-01T23:00:00Z,30.2583,-88.2131,0.0,5.21,125.2,-9999.0,'1111122,1111122,1111122' 
DISL,ioos:station:DISL:KATA:1,2013-10-01T23:30:00Z,30.2583,-88.2131,0.0,4.84,125.2,-9999.0,'1111122,1111122,1111122' 
DISL,ioos:station:DISL:KATA:1,2013-10-02T00:00:00Z,30.2583,-88.2131,0.0,4.83,123.1,-9999.0,'1111122,1111122,1111122' 
DISL,ioos:station:DISL:KATA:1,2013-10-02T00:30:00Z,30.2583,-88.2131,0.0,4.66,115.1,-9999.0,'1111122,1111122,1111122' 
DISL,ioos:station:DISL:KATA:1,2013-10-02T01:00:00Z,30.2583,-88.2131,0.0,5.4,118.2,-9999.0,'1111122,1111122,1111122' 
DISL,ioos:station:DISL:KATA:1,2013-10-02T01:30:00Z,30.2583,-88.2131,0.0,6.48,119.3,-9999.0,'1111122,1111122,1111122' 
DISL,ioos:station:DISL:KATA:1,2013-10-02T02:00:00Z,30.2583,-88.2131,0.0,7.11,119.3,-9999.0,'1111122,1111122,1111122' 
DISL,ioos:station:DISL:KATA:1,2013-10-02T02:30:00Z,30.2583,-88.2131,0.0,6.32,115.3,-9999.0,'1111122,1111122,1111122' 
DISL,ioos:station:DISL:KATA:1,2013-10-02T03:00:00Z,30.2583,-88.2131,0.0,5.71,116.0,-9999.0,'1111122,1111122,1111122' 
DISL,ioos:station:DISL:KATA:1,2013-10-02T03:30:00Z,30.2583,-88.2131,0.0,6.46,116.2,-9999.0,'1111122,1111122,1111122' 
DISL,ioos:station:DISL:KATA:1,2013-10-02T04:00:00Z,30.2583,-88.2131,0.0,6.68,112.1,-9999.0,'1111122,1111122,1111122' 
DISL,ioos:station:DISL:KATA:1,2013-10-02T04:30:00Z,30.2583,-88.2131,0.0,6.16,106.7,-9999.0,'1111122,1111122,1111122' 
DISL,ioos:station:DISL:KATA:1,2013-10-02T05:00:00Z,30.2583,-88.2131,0.0,5.41,99.4,-9999.0,'1111122,1111122,1111122' 
DISL,ioos:station:DISL:KATA:1,2013-10-02T05:30:00Z,30.2583,-88.2131,0.0,6.3,109.1,-9999.0,'1111122,1111122,1111122' 
DISL,ioos:station:DISL:KATA:1,2013-10-02T06:00:00Z,30.2583,-88.2131,0.0,5.98,92.4,-9999.0,'1111122,1111122,1111122' 
DISL,ioos:station:DISL:KATA:1,2013-10-02T06:30:00Z,30.2583,-88.2131,0.0,5.9,88.4,-9999.0,'1111122,1111122,1111122' 
DISL,ioos:station:DISL:KATA:1,2013-10-02T07:00:00Z,30.2583,-88.2131,0.0,6.14,80.3,-9999.0,'1111122,1111122,1111122' 
DISL,ioos:station:DISL:KATA:1,2013-10-02T07:30:00Z,30.2583,-88.2131,0.0,6.63,73.27,-9999.0,'1111122,1111122,1111122' 
DISL,ioos:station:DISL:KATA:1,2013-10-02T08:00:00Z,30.2583,-88.2131,0.0,7.17,76.94,-9999.0,'1111122,1111122,1111122' 
DISL,ioos:station:DISL:KATA:1,2013-10-02T08:30:00Z,30.2583,-88.2131,0.0,7.38,80.2,-9999.0,'1111122,1111122,1111122' 
DISL,ioos:station:DISL:KATA:1,2013-10-02T09:00:00Z,30.2583,-88.2131,0.0,7.17,81.3,-9999.0,'1111122,1111122,1111122' 
DISL,ioos:station:DISL:KATA:1,2013-10-02T09:30:00Z,30.2583,-88.2131,0.0,7.6,80.2,-9999.0,'1111122,1111122,1111122' 
DISL,ioos:station:DISL:KATA:1,2013-10-02T10:00:00Z,30.2583,-88.2131,0.0,7.88,74.72,-9999.0,'1111122,1111122,1111122' 
DISL,ioos:station:DISL:KATA:1,2013-10-02T10:30:00Z,30.2583,-88.2131,0.0,9.63,90.9,-9999.0,'1111122,1111122,1111122' 
DISL,ioos:station:DISL:KATA:1,2013-10-02T11:00:00Z,30.2583,-88.2131,0.0,5.83,177.9,-9999.0,'1111122,1111122,1111122' 
DISL,ioos:station:DISL:KATA:1,2013-10-02T11:30:00Z,30.2583,-88.2131,0.0,4.09,89.8,-9999.0,'1111122,1111122,1111122' 
DISL,ioos:station:DISL:KATA:1,2013-10-02T12:00:00Z,30.2583,-88.2131,0.0,4.98,75.35,-9999.0,'1111122,1111122,1111122' 
DISL,ioos:station:DISL:KATA:1,2013-10-02T12:30:00Z,30.2583,-88.2131,0.0,4.38,78.85,-9999.0,'1111122,1111122,1111122' 
DISL,ioos:station:DISL:KATA:1,2013-10-02T13:00:00Z,30.2583,-88.2131,0.0,4.61,139.2,-9999.0,'1111122,1111122,1111122' 
DISL,ioos:station:DISL:KATA:1,2013-10-02T13:30:00Z,30.2583,-88.2131,0.0,3.44,56.12,-9999.0,'1111122,1111122,1111122' 
DISL,ioos:station:DISL:KATA:1,2013-10-02T14:00:00Z,30.2583,-88.2131,0.0,5.11,79.68,-9999.0,'1111122,1111122,1111122' 
DISL,ioos:station:DISL:KATA:1,2013-10-02T14:30:00Z,30.2583,-88.2131,0.0,6.25,151.5,-9999.0,'1111122,1111122,1111122' 
DISL,ioos:station:DISL:KATA:1,2013-10-02T15:00:00Z,30.2583,-88.2131,0.0,5.44,125.6,-9999.0,'1111122,1111122,1111122' 
DISL,ioos:station:DISL:KATA:1,2013-10-02T15:30:00Z,30.2583,-88.2131,0.0,7.57,115.6,-9999.0,'1111122,1111122,1111122' 
DISL,ioos:station:DISL:KATA:1,2013-10-02T16:00:00Z,30.2583,-88.2131,0.0,6.71,119.8,-9999.0,'1111122,1111122,1111122' 
DISL,ioos:station:DISL:KATA:1,2013-10-02T16:30:00Z,30.2583,-88.2131,0.0,5.47,87.4,-9999.0,'1111122,1111122,1111122' 
DISL,ioos:station:DISL:KATA:1,2013-10-02T17:00:00Z,30.2583,-88.2131,0.0,3.87,83.7,-9999.0,'1111122,1111122,1111122' 
DISL,ioos:station:DISL:KATA:1,2013-10-02T17:30:00Z,30.2583,-88.2131,0.0,4.04,70.34,-9999.0,'1111122,1111122,1111122' 
DISL,ioos:station:DISL:KATA:1,2013-10-02T18:00:00Z,30.2583,-88.2131,0.0,3.75,70.31,-9999.0,'1111122,1111122,1111122' 
DISL,ioos:station:DISL:KATA:1,2013-10-02T18:30:00Z,30.2583,-88.2131,0.0,3.3,76.67,-9999.0,'1111122,1111122,1111122' 
DISL,ioos:station:DISL:KATA:1,2013-10-02T19:00:00Z,30.2583,-88.2131,0.0,3.53,69.85,-9999.0,'1111122,1111122,1111122' 
DISL,ioos:station:DISL:KATA:1,2013-10-02T19:30:00Z,30.2583,-88.2131,0.0,5.74,67.98,-9999.0,'1111122,1111122,1111122' 
DISL,ioos:station:DISL:KATA:1,2013-10-02T20:00:00Z,30.2583,-88.2131,0.0,7.02,65.84,-9999.0,'1111122,1111122,1111122' 
DISL,ioos:station:DISL:KATA:1,2013-10-02T20:30:00Z,30.2583,-88.2131,0.0,7.04,67.4,-9999.0,'1111122,1111122,1111122' 
DISL,ioos:station:DISL:KATA:1,2013-10-02T21:00:00Z,30.2583,-88.2131,0.0,5.53,69.93,-9999.0,'1111122,1111122,1111122' 
DISL,ioos:station:DISL:KATA:1,2013-10-02T21:30:00Z,30.2583,-88.2131,0.0,5.32,70.14,-9999.0,'1111122,1111122,1111122' 
DISL,ioos:station:DISL:KATA:1,2013-10-02T22:00:00Z,30.2583,-88.2131,0.0,6.88,100.0,-9999.0,'1111122,1111122,1111122' 
DISL,ioos:station:DISL:KATA:1,2013-10-02T22:30:00Z,30.2583,-88.2131,0.0,9.25,112.5,-9999.0,'1111122,1111122,1111122' 
DISL,ioos:station:DISL:KATA:1,2013-10-02T23:00:00Z,30.2583,-88.2131,0.0,9.39,111.3,-9999.0,'1111122,1111122,1111122' 
DISL,ioos:station:DISL:KATA:1,2013-10-02T23:30:00Z,30.2583,-88.2131,0.0,8.65,114.5,-9999.0,'1111122,1111122,1111122' 
DISL,ioos:station:DISL:KATA:1,2013-10-03T00:00:00Z,30.2583,-88.2131,0.0,7.24,110.4,-9999.0,'1111122,1111122,1111122' 
DISL,ioos:station:DISL:KATA:1,2013-10-03T00:30:00Z,30.2583,-88.2131,0.0,6.99,105.3,-9999.0,'1111122,1111122,1111122' 
DISL,ioos:station:DISL:KATA:1,2013-10-03T01:00:00Z,30.2583,-88.2131,0.0,8.12,107.9,-9999.0,'1111122,1111122,1111122' 
DISL,ioos:station:DISL:KATA:1,2013-10-03T01:30:00Z,30.2583,-88.2131,0.0,7.66,98.2,-9999.0,'1111122,1111122,1111122' 
DISL,ioos:station:DISL:KATA:1,2013-10-03T02:00:00Z,30.2583,-88.2131,0.0,8.54,116.7,-9999.0,'1111122,1111122,1111122' 
DISL,ioos:station:DISL:KATA:1,2013-10-03T02:30:00Z,30.2583,-88.2131,0.0,8.36,127.1,-9999.0,'1111122,1111122,1111122' 
DISL,ioos:station:DISL:KATA:1,2013-10-03T03:00:00Z,30.2583,-88.2131,0.0,7.29,123.3,-9999.0,'1111122,1111122,1111122' 
DISL,ioos:station:DISL:KATA:1,2013-10-03T03:30:00Z,30.2583,-88.2131,0.0,7.84,118.7,-9999.0,'1111122,1111122,1111122' 
DISL,ioos:station:DISL:KATA:1,2013-10-03T04:00:00Z,30.2583,-88.2131,0.0,7.34,119.2,-9999.0,'1111122,1111122,1111122' 
DISL,ioos:station:DISL:KATA:1,2013-10-03T04:30:00Z,30.2583,-88.2131,0.0,7.76,129.1,-9999.0,'1111122,1111122,1111122' 
DISL,ioos:station:DISL:KATA:1,2013-10-03T05:00:00Z,30.2583,-88.2131,0.0,7.39,136.8,-9999.0,'1111122,1111122,1111122' 
DISL,ioos:station:DISL:KATA:1,2013-10-03T05:30:00Z,30.2583,-88.2131,0.0,8.52,136.5,-9999.0,'1111122,1111122,1111122' 
DISL,ioos:station:DISL:KATA:1,2013-10-03T06:00:00Z,30.2583,-88.2131,0.0,7.76,137.5,-9999.0,'1111122,1111122,1111122' 
DISL,ioos:station:DISL:KATA:1,2013-10-03T06:30:00Z,30.2583,-88.2131,0.0,9.18,163.4,-9999.0,'1111122,1111122,1111122' 
DISL,ioos:station:DISL:KATA:1,2013-10-03T07:00:00Z,30.2583,-88.2131,0.0,4.11,127.4,-9999.0,'1111122,1111122,1111122' 
DISL,ioos:station:DISL:KATA:1,2013-10-03T07:30:00Z,30.2583,-88.2131,0.0,2.38,154.3,-9999.0,'1111122,1111122,1111122' 
DISL,ioos:station:DISL:KATA:1,2013-10-03T08:00:00Z,30.2583,-88.2131,0.0,5.15,150.1,-9999.0,'1111122,1111122,1111122' 
DISL,ioos:station:DISL:KATA:1,2013-10-03T08:30:00Z,30.2583,-88.2131,0.0,7.52,140.1,-9999.0,'1111122,1111122,1111122' 
DISL,ioos:station:DISL:KATA:1,2013-10-03T09:00:00Z,30.2583,-88.2131,0.0,6.25,135.8,-9999.0,'1111122,1111122,1111122' 
DISL,ioos:station:DISL:KATA:1,2013-10-03T09:30:00Z,30.2583,-88.2131,0.0,6.33,125.2,-9999.0,'1111122,1111122,1111122' 
DISL,ioos:station:DISL:KATA:1,2013-10-03T10:00:00Z,30.2583,-88.2131,0.0,6.05,126.9,-9999.0,'1111122,1111122,1111122' 
DISL,ioos:station:DISL:KATA:1,2013-10-03T10:30:00Z,30.2583,-88.2131,0.0,6.35,125.3,-9999.0,'1111122,1111122,1111122' 
DISL,ioos:station:DISL:KATA:1,2013-10-03T11:00:00Z,30.2583,-88.2131,0.0,6.28,118.0,-9999.0,'1111122,1111122,1111122' 
DISL,ioos:station:DISL:KATA:1,2013-10-03T11:30:00Z,30.2583,-88.2131,0.0,6.02,103.9,-9999.0,'1111122,1111122,1111122' 
DISL,ioos:station:DISL:KATA:1,2013-10-03T12:00:00Z,30.2583,-88.2131,0.0,5.77,80.2,-9999.0,'1111122,1111122,1111122' 
DISL,ioos:station:DISL:KATA:1,2013-10-03T12:30:00Z,30.2583,-88.2131,0.0,6.44,70.58,-9999.0,'1111122,1111122,1111122' 
DISL,ioos:station:DISL:KATA:1,2013-10-03T13:00:00Z,30.2583,-88.2131,0.0,6.22,77.53,-9999.0,'1111122,1111122,1111122' 
DISL,ioos:station:DISL:KATA:1,2013-10-03T13:30:00Z,30.2583,-88.2131,0.0,6.53,77.3,-9999.0,'1111122,1111122,1111122' 
DISL,ioos:station:DISL:KATA:1,2013-10-03T14:00:00Z,30.2583,-88.2131,0.0,6.96,79.44,-9999.0,'1111122,1111122,1111122' 
DISL,ioos:station:DISL:KATA:1,2013-10-03T14:30:00Z,30.2583,-88.2131,0.0,6.98,79.88,-9999.0,'1111122,1111122,1111122' 
DISL,ioos:station:DISL:KATA:1,2013-10-03T15:00:00Z,30.2583,-88.2131,0.0,8.15,113.1,-9999.0,'1111122,1111122,1111122' 
DISL,ioos:station:DISL:KATA:1,2013-10-03T17:30:00Z,30.2583,-88.2131,0.0,8.47,111.9,-9999.0,'1111122,1111122,1111122' 
DISL,ioos:station:DISL:KATA:1,2013-10-03T18:00:00Z,30.2583,-88.2131,0.0,8.34,108.5,-9999.0,'1111122,1111122,1111122' 
DISL,ioos:station:DISL:KATA:1,2013-10-03T18:30:00Z,30.2583,-88.2131,0.0,9.16,111.3,-9999.0,'1111122,1111122,1111122' 
DISL,ioos:station:DISL:KATA:1,2013-10-03T19:00:00Z,30.2583,-88.2131,0.0,9.5,108.7,-9999.0,'1111122,1111122,1111122' 
DISL,ioos:station:DISL:KATA:1,2013-10-03T19:30:00Z,30.2583,-88.2131,0.0,10.78,103.1,-9999.0,'1111122,1111122,1111122' 
DISL,ioos:station:DISL:KATA:1,2013-10-03T20:00:00Z,30.2583,-88.2131,0.0,11.11,110.7,-9999.0,'1111122,1111122,1111122' 
DISL,ioos:station:DISL:KATA:1,2013-10-03T20:30:00Z,30.2583,-88.2131,0.0,15.61,149.4,-9999.0,'1111122,1111122,1111122' 
DISL,ioos:station:DISL:KATA:1,2013-10-03T21:00:00Z,30.2583,-88.2131,0.0,8.09,149.8,-9999.0,'1111122,1111122,1111122' 
DISL,ioos:station:DISL:KATA:1,2013-10-03T21:30:00Z,30.2583,-88.2131,0.0,5.99,89.9,-9999.0,'1111122,1111122,1111122' 
DISL,ioos:station:DISL:KATA:1,2013-10-03T22:00:00Z,30.2583,-88.2131,0.0,4.39,87.5,-9999.0,'1111122,1111122,1111122' 
DISL,ioos:station:DISL:KATA:1,2013-10-03T22:30:00Z,30.2583,-88.2131,0.0,10.48,149.8,-9999.0,'1111122,1111122,1111122' 
DISL,ioos:station:DISL:KATA:1,2013-10-03T23:00:00Z,30.2583,-88.2131,0.0,7.01,119.6,-9999.0,'1111122,1111122,1111122' 
DISL,ioos:station:DISL:KATA:1,2013-10-03T23:30:00Z,30.2583,-88.2131,0.0,5.84,106.0,-9999.0,'1111122,1111122,1111122' 
DISL,ioos:station:DISL:KATA:1,2013-10-04T00:00:00Z,30.2583,-88.2131,0.0,7.23,105.9,-9999.0,'1111122,1111122,1111122' 
DISL,ioos:station:DISL:KATA:1,2013-10-04T00:30:00Z,30.2583,-88.2131,0.0,8.83,130.8,-9999.0,'1111122,1111122,1111122' 
DISL,ioos:station:DISL:KATA:1,2013-10-04T01:00:00Z,30.2583,-88.2131,0.0,9.56,132.5,-9999.0,'1111122,1111122,1111122' 
DISL,ioos:station:DISL:KATA:1,2013-10-04T01:30:00Z,30.2583,-88.2131,0.0,9.39,135.9,-9999.0,'1111122,1111122,1111122' 
DISL,ioos:station:DISL:KATA:1,2013-10-04T02:00:00Z,30.2583,-88.2131,0.0,9.58,160.2,-9999.0,'1111122,1111122,1111122' 
DISL,ioos:station:DISL:KATA:1,2013-10-04T02:30:00Z,30.2583,-88.2131,0.0,6.17,158.3,-9999.0,'1111122,1111122,1111122' 
DISL,ioos:station:DISL:KATA:1,2013-10-04T03:00:00Z,30.2583,-88.2131,0.0,7.14,155.4,-9999.0,'1111122,1111122,1111122' 
DISL,ioos:station:DISL:KATA:1,2013-10-04T03:30:00Z,30.2583,-88.2131,0.0,7.21,173.4,-9999.0,'1111122,1111122,1111122' 
DISL,ioos:station:DISL:KATA:1,2013-10-04T04:00:00Z,30.2583,-88.2131,0.0,6.21,155.8,-9999.0,'1111122,1111122,1111122' 
DISL,ioos:station:DISL:KATA:1,2013-10-04T04:30:00Z,30.2583,-88.2131,0.0,4.52,148.0,-9999.0,'1111122,1111122,1111122' 
DISL,ioos:station:DISL:KATA:1,2013-10-04T05:00:00Z,30.2583,-88.2131,0.0,4.79,147.9,-9999.0,'1111122,1111122,1111122' 
DISL,ioos:station:DISL:KATA:1,2013-10-04T05:30:00Z,30.2583,-88.2131,0.0,4.7,136.3,-9999.0,'1111122,1111122,1111122' 
DISL,ioos:station:DISL:KATA:1,2013-10-04T06:00:00Z,30.2583,-88.2131,0.0,4.2,134.8,-9999.0,'1111122,1111122,1111122' 
DISL,ioos:station:DISL:KATA:1,2013-10-04T06:30:00Z,30.2583,-88.2131,0.0,5.34,124.9,-9999.0,'1111122,1111122,1111122' 
DISL,ioos:station:DISL:KATA:1,2013-10-04T07:00:00Z,30.2583,-88.2131,0.0,5.28,137.1,-9999.0,'1111122,1111122,1111122' 
DISL,ioos:station:DISL:KATA:1,2013-10-04T07:30:00Z,30.2583,-88.2131,0.0,4.47,133.4,-9999.0,'1111122,1111122,1111122' 
DISL,ioos:station:DISL:KATA:1,2013-10-04T08:00:00Z,30.2583,-88.2131,0.0,4.3,137.8,-9999.0,'1111122,1111122,1111122' 
DISL,ioos:station:DISL:KATA:1,2013-10-04T08:30:00Z,30.2583,-88.2131,0.0,4.65,119.9,-9999.0,'1111122,1111122,1111122' 
DISL,ioos:station:DISL:KATA:1,2013-10-04T09:00:00Z,30.2583,-88.2131,0.0,3.38,129.5,-9999.0,'1111122,1111122,1111122' 
DISL,ioos:station:DISL:KATA:1,2013-10-04T09:30:00Z,30.2583,-88.2131,0.0,3.78,102.8,-9999.0,'1111122,1111122,1111122' 
DISL,ioos:station:DISL:KATA:1,2013-10-04T10:00:00Z,30.2583,-88.2131,0.0,4.18,105.4,-9999.0,'1111122,1111122,1111122' 
DISL,ioos:station:DISL:KATA:1,2013-10-04T10:30:00Z,30.2583,-88.2131,0.0,5.69,94.0,-9999.0,'1111122,1111122,1111122' 
DISL,ioos:station:DISL:KATA:1,2013-10-04T11:00:00Z,30.2583,-88.2131,0.0,5.12,96.4,-9999.0,'1111122,1111122,1111122' 
DISL,ioos:station:DISL:KATA:1,2013-10-04T11:30:00Z,30.2583,-88.2131,0.0,4.89,99.4,-9999.0,'1111122,1111122,1111122' 
DISL,ioos:station:DISL:KATA:1,2013-10-04T12:00:00Z,30.2583,-88.2131,0.0,4.37,100.7,-9999.0,'1111122,1111122,1111122' 
DISL,ioos:station:DISL:KATA:1,2013-10-04T12:30:00Z,30.2583,-88.2131,0.0,4.55,89.2,-9999.0,'1111122,1111122,1111122' 
DISL,ioos:station:DISL:KATA:1,2013-10-04T13:00:00Z,30.2583,-88.2131,0.0,4.62,79.6,-9999.0,'1111122,1111122,1111122' 
DISL,ioos:station:DISL:KATA:1,2013-10-04T13:30:00Z,30.2583,-88.2131,0.0,4.51,78.73,-9999.0,'1111122,1111122,1111122' 
DISL,ioos:station:DISL:KATA:1,2013-10-04T14:00:00Z,30.2583,-88.2131,0.0,5.53,80.4,-9999.0,'1111122,1111122,1111122' 
DISL,ioos:station:DISL:KATA:1,2013-10-04T14:30:00Z,30.2583,-88.2131,0.0,5.21,81.0,-9999.0,'1111122,1111122,1111122' 
DISL,ioos:station:DISL:KATA:1,2013-10-04T15:00:00Z,30.2583,-88.2131,0.0,5.12,78.46,-9999.0,'1111122,1111122,1111122' 
DISL,ioos:station:DISL:KATA:1,2013-10-04T15:30:00Z,30.2583,-88.2131,0.0,4.67,84.8,-9999.0,'1111122,1111122,1111122' 
DISL,ioos:station:DISL:KATA:1,2013-10-04T16:00:00Z,30.2583,-88.2131,0.0,7.31,118.7,-9999.0,'1111122,1111122,1111122' 
DISL,ioos:station:DISL:KATA:1,2013-10-04T16:30:00Z,30.2583,-88.2131,0.0,8.05,131.3,-9999.0,'1111122,1111122,1111122' 
DISL,ioos:station:DISL:KATA:1,2013-10-04T17:00:00Z,30.2583,-88.2131,0.0,7.64,127.9,-9999.0,'1111122,1111122,1111122' 
DISL,ioos:station:DISL:KATA:1,2013-10-04T17:30:00Z,30.2583,-88.2131,0.0,7.88,129.0,-9999.0,'1111122,1111122,1111122' 
DISL,ioos:station:DISL:KATA:1,2013-10-04T18:00:00Z,30.2583,-88.2131,0.0,8.62,131.9,-9999.0,'1111122,1111122,1111122' 
DISL,ioos:station:DISL:KATA:1,2013-10-04T18:30:00Z,30.2583,-88.2131,0.0,7.63,134.0,-9999.0,'1111122,1111122,1111122' 
DISL,ioos:station:DISL:KATA:1,2013-10-04T19:00:00Z,30.2583,-88.2131,0.0,7.87,134.6,-9999.0,'1111122,1111122,1111122' 
DISL,ioos:station:DISL:KATA:1,2013-10-04T19:30:00Z,30.2583,-88.2131,0.0,8.09,144.3,-9999.0,'1111122,1111122,1111122' 
DISL,ioos:station:DISL:KATA:1,2013-10-04T20:00:00Z,30.2583,-88.2131,0.0,7.24,145.1,-9999.0,'1111122,1111122,1111122' 
DISL,ioos:station:DISL:KATA:1,2013-10-04T20:30:00Z,30.2583,-88.2131,0.0,6.7,150.1,-9999.0,'1111122,1111122,1111122' 
DISL,ioos:station:DISL:KATA:1,2013-10-04T21:00:00Z,30.2583,-88.2131,0.0,5.41,143.5,-9999.0,'1111122,1111122,1111122' 
DISL,ioos:station:DISL:KATA:1,2013-10-04T21:30:00Z,30.2583,-88.2131,0.0,5.61,138.6,-9999.0,'1111122,1111122,1111122' 
DISL,ioos:station:DISL:KATA:1,2013-10-04T22:00:00Z,30.2583,-88.2131,0.0,5.71,146.1,-9999.0,'1111122,1111122,1111122' 
DISL,ioos:station:DISL:KATA:1,2013-10-04T22:30:00Z,30.2583,-88.2131,0.0,2.46,214.4,-9999.0,'1111122,1111122,1111122' 
DISL,ioos:station:DISL:KATA:1,2013-10-04T23:00:00Z,30.2583,-88.2131,0.0,1.66,207.3,-9999.0,'1111122,1111122,1111122' 
DISL,ioos:station:DISL:KATA:1,2013-10-04T23:30:00Z,30.2583,-88.2131,0.0,3.42,217.2,-9999.0,'1111122,1111122,1111122' 
DISL,ioos:station:DISL:KATA:1,2013-10-05T00:00:00Z,30.2583,-88.2131,0.0,2.9,223.4,-9999.0,'1111122,1111122,1111122' 
DISL,ioos:station:DISL:KATA:1,2013-10-05T00:30:00Z,30.2583,-88.2131,0.0,1.17,185.7,-9999.0,'1111122,1111122,1111122' 
DISL,ioos:station:DISL:KATA:1,2013-10-05T01:00:00Z,30.2583,-88.2131,0.0,0.88,95.0,-9999.0,'1111122,1111122,1111122' 
DISL,ioos:station:DISL:KATA:1,2013-10-05T01:30:00Z,30.2583,-88.2131,0.0,1.62,76.26,-9999.0,'1111122,1111122,1111122' 
DISL,ioos:station:DISL:KATA:1,2013-10-05T02:00:00Z,30.2583,-88.2131,0.0,2.9,100.9,-9999.0,'1111122,1111122,1111122' 
DISL,ioos:station:DISL:KATA:1,2013-10-05T02:30:00Z,30.2583,-88.2131,0.0,5.99,108.8,-9999.0,'1111122,1111122,1111122' 
DISL,ioos:station:DISL:KATA:1,2013-10-05T03:00:00Z,30.2583,-88.2131,0.0,6.53,117.7,-9999.0,'1111122,1111122,1111122' 
DISL,ioos:station:DISL:KATA:1,2013-10-05T03:30:00Z,30.2583,-88.2131,0.0,7.16,125.6,-9999.0,'1111122,1111122,1111122' 
DISL,ioos:station:DISL:KATA:1,2013-10-05T04:00:00Z,30.2583,-88.2131,0.0,8.61,125.7,-9999.0,'1111122,1111122,1111122' 
DISL,ioos:station:DISL:KATA:1,2013-10-05T04:30:00Z,30.2583,-88.2131,0.0,8.16,129.8,-9999.0,'1111122,1111122,1111122' 
DISL,ioos:station:DISL:KATA:1,2013-10-05T05:00:00Z,30.2583,-88.2131,0.0,7.26,128.1,-9999.0,'1111122,1111122,1111122' 
DISL,ioos:station:DISL:KATA:1,2013-10-05T05:30:00Z,30.2583,-88.2131,0.0,6.62,120.7,-9999.0,'1111122,1111122,1111122' 
DISL,ioos:station:DISL:KATA:1,2013-10-05T06:00:00Z,30.2583,-88.2131,0.0,7.32,121.6,-9999.0,'1111122,1111122,1111122' 
DISL,ioos:station:DISL:KATA:1,2013-10-05T06:30:00Z,30.2583,-88.2131,0.0,6.26,119.2,-9999.0,'1111122,1111122,1111122' 